• MPC Preparation (Info)

  • MPEC 2023-J87 : 2023 JK

    The following Minor Planet Electronic Circular may be linked-to from your own Web pages, but must not otherwise be redistributed electronically.

    A form allowing access to any MPEC is at the bottom of this page.


    Read MPEC 2023-J86 Read MPEC 2023-J88


    M.P.E.C. 2023-J87                                  Issued 2023 May 10, 22:02 UT
    
         The Minor Planet Electronic Circulars contain information on unusual
             minor planets, routine data on comets and natural satellites,
             and occasional editorial announcements.  They are published
        on behalf of Division F of the International Astronomical Union by the
              Minor Planet Center, Smithsonian Astrophysical Observatory,
                              Cambridge, MA 02138, U.S.A.
    			  
                 Prepared using the Tamkin Foundation Computer Network
    
                                  MPC@CFA.HARVARD.EDU
                URL https://www.minorplanetcenter.net/    ISSN 1523-6714
    
                                     2023 JK                                 
    
    
    Observations:
         K23J00K  C2023 04 24.35564112 48 51.970-24 29 40.57         21.99GVEJ087F52
         K23J00K  C2023 04 24.36642212 48 51.755-24 29 41.27         22.10GVEJ087F52
         K23J00K  C2023 04 24.37719812 48 51.511-24 29 41.81         21.87GVEJ087F52
         K23J00K  C2023 04 24.38799512 48 51.303-24 29 42.62         21.62GVEJ087F52
         K23J00K* C2023 05 10.31137713 07 23.905-23 44 03.92         19.91wXEJ087F52
         K23J00K  C2023 05 10.33037713 07 26.915-23 43 52.89         19.86wXEJ087F52
         K23J00K  C2023 05 10.33988213 07 28.417-23 43 47.10         19.83wXEJ087F52
         K23J00K  C2023 05 10.40112713 07 38.220-23 43 04.61         19.63GVEJ087F51
         K23J00K  C2023 05 10.40176513 07 38.329-23 43 04.12         19.56GVEJ087F51
         K23J00K  C2023 05 10.40368813 07 38.640-23 43 02.65         19.60GVEJ087F51
         K23J00K  C2023 05 10.40433013 07 38.747-23 43 02.18         19.65GVEJ087F51
         K23J00K KC2023 05 10.51601 13 08 06.11 -23 39 43.9          19.5 VqEJ087E23
         K23J00K KC2023 05 10.52295 13 08 07.27 -23 39 39.2          19.9 VqEJ087E23
         K23J00K KC2023 05 10.54378 13 08 11.00 -23 39 24.5          20.1 VqEJ087E23
    
    Observer details:
    E23 Arcadia.  Observer A. Hidas.  0.35-m f/1.9 reflector + CCD.
    F51 Pan-STARRS 1, Haleakala.  Observers J. Bulger, K. Chambers, T. Lowe, A.
        Schultz, I. Smith.  Measurers S. Chastel, J. Fairlamb, M. Huber, Y.
        Ramanjooloo, R. Wainscoat, R. Weryk.  1.8-m Ritchey-Chretien + CCD.
    F52 Pan-STARRS 2, Haleakala.  Observers J. Bulger, K. Chambers, T. Dukes, T.
        Lowe, A. Schultz, I. Smith.  Measurers S. Chastel, J. Fairlamb, M. Huber,
        Y. Ramanjooloo, R. Wainscoat, R. Weryk, K. Chambers, T. de Boer, H. Gao,
        C.-C. Lin, E. Magnier.  1.8-m Ritchey-Chretien + CCD.
    
    Orbital elements:
    2023 JK                                                  Earth MOID = 0.0088 AU
    Epoch 2023 Feb. 25.0 TT = JDT 2460000.5                 Veres                   
    M 324.36009              (2000.0)            P               Q                  
    n   0.33339938     Peri.   29.36710     -0.06801597     +0.99447775             
    a   2.0598054      Node   236.84055     -0.93297261     -0.09178134             
    e   0.5220127      Incl.    5.47844     -0.35346277     +0.05089393             
    P   2.96           H   24.73          G   0.15           U   8                  
    Residuals in seconds of arc
    230424 F52  0.1-  0.0     230510 F52  0.1+  0.0     230510 F51  0.0   0.0
    230424 F52  0.1+  0.0     230510 F52  0.1+  0.0     230510 E23  0.2-  0.6+
    230424 F52  0.1-  0.1+    230510 F51  0.0   0.0     230510 E23  0.7-  0.3+
    230424 F52  0.2+  0.1-    230510 F51  0.0   0.0     230510 E23  0.8+  0.8-
    230510 F52  0.2+  0.0     230510 F51  0.0   0.0
    
    Ephemeris:
    2023 JK                  a,e,i = 2.06, 0.52, 5                   q = 0.9846
    Date    TT    R. A. (2000) Decl.     Delta      r    Elong.  Phase     V
    2023 04 10    12 51 09.3 -23 45 50   0.2471  1.2401   163.1    13.6    22.9
    ...
    2023 04 25    12 48 54.5 -24 29 29   0.1484  1.1447   158.1    19.2    21.9
    ...
    2023 05 03    12 52 38.0 -24 23 16   0.1017  1.0999   153.7    24.0    21.1
    ...
    2023 05 09    13 03 07.8 -23 54 42   0.06834 1.0699   151.6    26.7    20.3
    2023 05 10    13 06 15.4 -23 45 40   0.06290 1.0652   151.5    26.9    20.1
    2023 05 11    13 10 02.7 -23 34 24   0.05749 1.0607   151.6    27.0    19.9
    ...
    2023 05 17    14 06 45.1 -20 04 10   0.02621 1.0357   159.7    19.8    17.9
    ...
    2023 05 25    22 07 06.6 +25 05 43   0.02227 1.0094    80.8    97.9    20.0
    ...
    2023 06 09    23 56 10.3 +26 02 17   0.09936 0.9847    69.5   105.0    23.6
    
    M. P. C. Staff               (C) Copyright 2023 MPC           M.P.E.C. 2023-J87
    


    Read MPEC 2023-J86 Read MPEC 2023-J88


    MPEC number:

    Enter an MPEC number in one of the following forms:

    • 1997-B01 (the full form)
    • J97B01 (the packed version of the full form)
    • B01 (the abbreviated form)